Погода в Молчанове

Россия / Тульская область     53°19′26″N   37°29′03″E
темп.,
°C
ветер,
м/с
пор.,
м/с
влажн.,
%
обл.,
%
осадки,
мм/ч
давл.,
гПа
погр.,
м
28 сентября, вт
вт2800:00+8с5992100 0.6 1022605
03:00+7с4894100 1.0 1022548
06:00+7всв5892100 0.4 1024618
09:00+6св5888100 0.5 1026772
12:00+6всв5786100 0.1 1028923
15:00+6св4685100 0.2 1029859
18:00+6св5883100 0.1 1030638
21:00+5всв4980100 0.1 1032678
29 сентября, ср
ср2900:00+5св377712 0.0 1033269
03:00+2ссв48885 0.0 1034169
06:00+1ссв37920 0.0 1035161
09:00+5ссв46760 0.0 1035322
12:00+9св45565 0.0 1035926
15:00+10св44495 0.0 10341110
18:00+7ссв33645 0.0 103438
21:00+6св2270100 0.0 103435
30 сентября, чт
чт3000:00+5св22775 0.0 103512
03:00+4ссв22835 0.0 103512
06:00+3ссв22879 0.0 103525
09:00+7св23735 0.0 1036236
12:00+10всв23585 0.0 1035887
15:00+12в22535 0.0 10351167
18:00+9всв11655 0.0 103410
21:00+7в11711 0.0 103510
1 октября, пт
пт100:00+6вюв11753 0.0 103610
03:00+5юз00795 0.0 103610
06:00+5зсз11825 0.0 103610
09:00+8з00705 0.0 1036151
12:00+12ю11574 0.0 1036793
15:00+13ююз11525 0.0 10351097
18:00+10ююз11644 0.0 103410
21:00+8юз11700 0.0 103510
2 октября, сб
сб200:00+7юз11730 0.0 103510
03:00+7ююз11770 0.0 103510
06:00+6ююз12805 0.0 103510
09:00+9ю22685 0.0 1035181
12:00+13ю33535 0.0 1034831
15:00+14ююз33505 0.0 10331125
18:00+11ю23645 0.0 103323
21:00+9ююв33715 0.0 103332